Simultaneous Nadir Overpasses (SNOs) Predictions

Prediction of SNOs between GOES-16 and NOAA-20 Satellite Orbit:

Table of predicted SNOs for the next 14.0 days since TLE Epoch: 8/15/2025
Index Date Time (GOES-16) GOES-16 Lat,Lon NOAA-20 Lat,Lon Distance(km) Time Diff (sec)
1 08/16/2025 20:33:06 0.07,-104.74 -0.56,-107.45 310.24 80
2 08/17/2025 20:17:02 0.07,-104.73 0.48,-102.93 206.05 80
3 08/19/2025 08:38:49 -0.08,-104.71 0.68,-108.19 396.54 80
4 08/20/2025 08:17:23 -0.08,-104.71 -0.29,-103.65 119.64 80
5 08/21/2025 20:39:20 0.09,-104.72 -0.89,-108.95 483.35 80
6 08/22/2025 20:23:15 0.09,-104.72 0.15,-104.43 33.49 80
7 08/25/2025 08:26:17 -0.09,-104.71 0.03,-105.15 50.77 80
8 08/26/2025 08:04:53 -0.09,-104.71 -1.01,-100.63 466.17 80
9 08/27/2025 20:26:49 0.09,-104.73 -0.16,-105.93 136.12 80
10 08/28/2025 20:10:43 0.09,-104.73 0.82,-101.39 380.97 80
